Weather History for Billings, MT

Change the Weather History Date:

Wednesday, December 5, 2012

  Actual Average Record
Temperature  
Mean Temperature 50 °F 28 °F  
Max Temperature 63 °F 36 °F 73 °F (1939)
Min Temperature 36 °F 20 °F -16 °F (1972)
Degree Days  
Heating Degree Days 15 37  
Month to date heating degree days 90 182  
Since 1 July heating degree days 1472 1810  
Cooling Degree Days 0 0  
Month to date cooling degree days 0 0  
Year to date cooling degree days 958 636  
Moisture  
Dew Point 25 °F    
Average Humidity 47    
Maximum Humidity 64    
Minimum Humidity 29    
Precipitation  
Precipitation T in 0.02 in 0.18 in (1975)
Month to date precipitation T 0.09  
Year to date precipitation 6.86 13.25  
Snow  
Snow T in 0.30 in 1.80 in (2005)
Month to date snowfall T 1.3  
Since 1 July snowfall 11.6 13.0  
Snow Depth 0.00 in    
Sea Level Pressure  
Sea Level Pressure 29.83 in    
Wind  
Wind Speed 12 mph (WNW)    
Max Wind Speed 28 mph    
Max Gust Speed 35 mph    
Visibility 10 miles    
Events      
T = Trace of Precipitation, MM = Missing Value Source: NWS Daily Summary

Daily Weather History Graph

Daily Weather History Graph

Search for Another Location

Airport:

Trip Planner

Search our weather history database for the weather conditions in past years. The results will help you decide how hot, cold, wet, or windy it might be!

Date:

Astronomy

Dec. 05, 2012 Rise Set
Actual Time 7:40 AM MST 4:29 PM MST
Civil Twilight 7:05 AM MST 5:03 PM MST
Nautical Twilight 6:28 AM MST 5:41 PM MST
Astronomical Twilight 5:52 AM MST 6:17 PM MST
Moon 11:39 PM MST (12/5) 11:50 AM MST (12/5)
Length of Visible Light 9h 57m
Length of Day
8h 49m
Waning Gibbous, 59% of the Moon is Illuminated
Dec 5
Waning Gibbous
Dec 6
Last Quarter
Dec 13
New
Dec 19
First Quarter
Dec 28
Full

Hourly Weather History & Observations

Time (MST) Temp. Windchill Dew Point Humidity Pressure Visibility Wind Dir Wind Speed Gust Speed Precip Events Conditions
12:53 AM 45.0 °F 39.7 °F 23.0 °F 42% 29.87 in 10.0 mi WSW 10.4 mph - N/A   Clear
1:53 AM 44.1 °F 40.1 °F 24.1 °F 45% 29.86 in 10.0 mi WSW 6.9 mph - N/A   Clear
2:53 AM 41.0 °F 37.1 °F 24.1 °F 51% 29.85 in 10.0 mi SW 5.8 mph - N/A   Clear
3:53 AM 44.1 °F 39.5 °F 26.1 °F 49% 29.80 in 10.0 mi SW 8.1 mph - N/A   Clear
4:53 AM 39.0 °F - 25.0 °F 57% 29.80 in 10.0 mi Calm Calm - N/A   Clear
5:53 AM 44.1 °F 37.7 °F 27.0 °F 51% 29.78 in 10.0 mi SW 12.7 mph - N/A   Clear
7:53 AM 43.0 °F 38.8 °F 28.0 °F 56% 29.76 in 10.0 mi SSW 6.9 mph - N/A   Partly Cloudy
8:53 AM 37.9 °F - 27.0 °F 65% 29.78 in 10.0 mi Calm Calm - N/A   Partly Cloudy
9:53 AM 45.0 °F 39.7 °F 28.9 °F 53% 29.76 in 10.0 mi SW 10.4 mph - N/A   Scattered Clouds
10:53 AM 52.0 °F - 30.9 °F 45% 29.73 in 10.0 mi SW 10.4 mph - N/A   Scattered Clouds
11:53 AM 55.9 °F - 33.1 °F 42% 29.69 in 10.0 mi WSW 12.7 mph - N/A   Mostly Cloudy
12:53 PM 63.0 °F - 32.0 °F 31% 29.66 in 10.0 mi SW 12.7 mph 18.4 mph N/A   Mostly Cloudy
1:53 PM 60.1 °F - 30.9 °F 33% 29.68 in 10.0 mi WNW 16.1 mph 21.9 mph N/A   Scattered Clouds
2:53 PM 60.1 °F - 28.9 °F 31% 29.69 in 10.0 mi WNW 19.6 mph 29.9 mph N/A   Scattered Clouds
3:33 PM 53.6 °F - 35.6 °F 51% 29.73 in 10.0 mi NNW 17.3 mph 26.5 mph N/A   Scattered Clouds
3:53 PM 52.0 °F - 34.0 °F 50% 29.74 in 10.0 mi NNW 20.7 mph 27.6 mph N/A   Scattered Clouds
4:53 PM 51.1 °F - 32.0 °F 48% 29.80 in 10.0 mi NNW 18.4 mph - N/A   Mostly Cloudy
5:53 PM 50.0 °F - 28.9 °F 44% 29.81 in 10.0 mi NNW 23.0 mph 32.2 mph N/A   Scattered Clouds
6:53 PM 48.0 °F - 24.1 °F 39% 29.85 in 10.0 mi NNW 23.0 mph - N/A   Mostly Cloudy
7:53 PM 45.0 °F 36.9 °F 18.0 °F 34% 29.88 in 10.0 mi NNW 20.7 mph - N/A   Scattered Clouds
8:53 PM 43.0 °F 35.4 °F 15.1 °F 32% 29.94 in 10.0 mi North 16.1 mph - N/A   Mostly Cloudy
9:53 PM 43.0 °F 40.3 °F 12.9 °F 30% 29.99 in 10.0 mi Variable 4.6 mph - N/A   Mostly Cloudy
10:36 PM 41.0 °F 34.7 °F 15.8 °F 36% 29.99 in 10.0 mi NE 10.4 mph - 0.00 in   Small Hail
10:53 PM 39.9 °F 35.1 °F 16.0 °F 38% 30.01 in 10.0 mi North 6.9 mph - 0.00 in   Light Hail
11:07 PM 39.2 °F 32.5 °F 17.6 °F 42% 30.00 in 10.0 mi East 10.4 mph - 0.00 in   Unknown
11:53 PM 39.0 °F 34.0 °F 21.9 °F 50% 30.03 in 9.0 mi ESE 6.9 mph - 0.00 in   Unknown